Date String (YYYY-MM-DD hh:mm:ss) UTC,Instrument flags,absolute air pressure of the measurement (hPa),sample flow rate (lpm),inlet stack bypass flow (lpm),air temperature of the measurement (°C),ambient temperature measured by the external sensor (°C),aerosol sample conditioner tube jacket temperature (°C),OPC LED temperature (°C),internal box temperature (°C),relative humidity of the measurement (%),span deviation,mass concentration of particles derived from Lorenz-Mie calculation of OPC scattering (μg/m³),mass concentration of particles derived from Lorenz-Mie calculation of OPC scattering (μg/m³),mass concentration of particles derived from Lorenz-Mie calculation of OPC scattering (μg/m³)
DateTimeUTC,F1_M11,P_M11,Q1_M11,Q2_M11,T1_M11,T2_M11,T3_M11,T4_M11,T5_M11,U1_M11,ZSPAN_M11,X2_M11,X0_M11,X1_M11
2023-12-03 22:00:00,SystemResetWarning,0825.0,5.00,000.00,018.7,017.5,000.0,027.1,020.0,18.8,0000.0,0002.23,0004.76,0001.55
2023-12-03 22:01:00,SystemResetWarning,0825.1,5.01,000.00,018.7,017.5,000.0,027.1,020.0,18.7,0000.0,0002.22,0005.71,0001.57
2023-12-03 22:02:00,SystemResetWarning,0825.1,5.01,000.00,018.7,017.5,000.0,027.1,020.0,18.6,0000.0,0002.27,0005.50,0001.60
2023-12-03 22:03:00,SystemResetWarning,0825.2,5.00,000.00,018.7,017.5,000.0,027.1,020.0,18.6,0000.0,0002.28,0005.88,0001.61
2023-12-03 22:04:00,SystemResetWarning,0825.2,4.99,000.00,018.7,017.5,000.0,027.1,020.0,18.6,0000.0,0002.28,0005.80,0001.62
2023-12-03 22:05:00,SystemResetWarning,0825.2,4.99,000.00,018.7,017.5,000.0,027.1,020.0,18.6,0000.0,0002.32,0005.90,0001.63
2023-12-03 22:06:00,SystemResetWarning,0825.2,5.00,000.00,018.7,017.5,000.0,027.1,020.0,18.7,0000.0,0002.33,0005.97,0001.64
2023-12-03 22:07:00,SystemResetWarning,0825.2,5.01,000.00,018.7,017.5,000.0,027.1,020.0,18.7,0000.0,0002.38,0006.20,0001.64
2023-12-03 22:08:00,SystemResetWarning,0825.2,5.01,000.00,018.7,017.5,000.0,027.1,020.0,18.7,0000.0,0002.41,0006.27,0001.65
2023-12-03 22:09:00,SystemResetWarning,0825.2,5.00,000.00,018.7,017.5,000.0,027.1,020.0,18.9,0000.0,0002.39,0006.24,0001.64
2023-12-03 22:10:00,SystemResetWarning,0825.1,4.99,000.00,018.7,017.5,000.0,027.1,020.0,19.0,0000.0,0002.41,0006.16,0001.63
2023-12-03 22:11:00,SystemResetWarning,0825.1,5.00,000.00,018.7,017.5,000.0,027.1,020.0,19.0,0000.0,0002.39,0006.14,0001.62
2023-12-03 22:12:00,SystemResetWarning,0825.1,5.00,000.00,018.7,017.5,000.0,027.1,020.0,18.8,0000.0,0002.38,0005.86,0001.62
2023-12-03 22:13:00,SystemResetWarning,0825.1,5.00,000.00,018.7,017.5,000.0,027.1,020.0,18.7,0000.0,0002.42,0005.35,0001.62
2023-12-03 22:14:00,SystemResetWarning,0825.2,5.00,000.00,018.7,017.5,000.0,027.1,020.0,18.7,0000.0,0002.44,0004.72,0001.62
2023-12-03 22:15:00,SystemResetWarning,0825.2,5.00,000.00,018.7,017.5,000.0,027.1,020.0,18.9,0000.0,0002.47,0004.71,0001.62
2023-12-03 22:16:00,SystemResetWarning,0825.2,5.00,000.00,018.7,017.5,000.0,027.1,020.0,18.8,0000.0,0002.43,0004.59,0001.63
2023-12-03 22:17:00,SystemResetWarning,0825.2,5.00,000.00,018.7,017.5,000.0,027.1,020.0,18.8,0000.0,0002.47,0004.73,0001.65
2023-12-03 22:18:00,SystemResetWarning,0825.1,5.00,000.00,018.7,017.5,000.0,027.1,020.0,18.8,0000.0,0002.43,0004.50,0001.67
2023-12-03 22:19:00,SystemResetWarning,0825.1,5.00,000.00,018.7,017.5,000.0,027.1,020.0,18.8,0000.0,0002.42,0004.44,0001.68
2023-12-03 22:20:00,SystemResetWarning,0825.2,5.00,000.00,018.7,017.5,000.0,027.1,020.0,18.7,0000.0,0002.41,0004.45,0001.69
2023-12-03 22:21:00,SystemResetWarning,0825.2,5.00,000.00,018.7,017.5,000.0,027.1,020.0,18.6,0000.0,0002.44,0004.78,0001.70
2023-12-03 22:22:00,SystemResetWarning,0825.2,5.00,000.00,018.7,017.5,000.0,027.1,020.0,18.4,0000.0,0002.46,0005.06,0001.71
2023-12-03 22:23:00,SystemResetWarning,0825.2,5.00,000.00,018.7,017.5,000.0,027.1,020.0,18.7,0000.0,0002.46,0004.96,0001.70
2023-12-03 22:24:00,SystemResetWarning,0825.2,5.00,000.00,018.7,017.5,000.0,027.1,020.0,18.8,0000.0,0002.42,0005.67,0001.69
2023-12-03 22:25:00,SystemResetWarning,0825.1,4.99,000.00,018.7,017.6,000.0,027.1,020.0,18.8,0000.0,0002.38,0005.75,0001.70
2023-12-03 22:26:00,SystemResetWarning,0825.1,4.99,000.00,018.7,017.6,000.0,027.1,020.0,18.6,0000.0,0002.39,0005.85,0001.71
2023-12-03 22:27:00,SystemResetWarning,0825.2,4.99,000.00,018.7,017.6,000.0,027.1,020.0,18.6,0000.0,0002.45,0006.22,0001.73
2023-12-03 22:28:00,SystemResetWarning,0825.2,5.00,000.00,018.7,017.6,000.0,027.1,020.0,18.5,0000.0,0002.40,0006.61,0001.71
2023-12-03 22:29:00,SystemResetWarning,0825.3,5.00,000.00,018.7,017.6,000.0,027.1,020.0,18.5,0000.0,0002.40,0006.63,0001.70
2023-12-03 22:30:00,SystemResetWarning,0825.3,5.01,000.00,018.7,017.6,000.0,027.1,020.0,18.3,0000.0,0002.40,0006.74,0001.69
2023-12-03 22:31:00,SystemResetWarning,0825.3,5.00,000.00,018.7,017.5,000.0,027.1,020.0,18.3,0000.0,0002.40,0007.61,0001.67
2023-12-03 22:32:00,SystemResetWarning,0825.2,5.00,000.00,018.7,017.5,000.0,027.1,020.0,18.3,0000.0,0002.38,0007.49,0001.67
2023-12-03 22:33:00,SystemResetWarning,0825.2,5.00,000.00,018.7,017.5,000.0,027.1,020.0,18.4,0000.0,0002.32,0007.92,0001.68
2023-12-03 22:34:00,SystemResetWarning,0825.2,5.00,000.00,018.7,017.5,000.0,027.1,020.0,18.5,0000.0,0002.33,0008.05,0001.71
2023-12-03 22:35:00,SystemResetWarning,0825.2,5.00,000.00,018.7,017.5,000.0,027.1,020.0,18.6,0000.0,0002.40,0008.44,0001.73
2023-12-03 22:36:00,SystemResetWarning,0825.3,5.00,000.00,018.7,017.6,000.0,027.1,020.0,18.6,0000.0,0002.44,0008.46,0001.74
2023-12-03 22:37:00,SystemResetWarning,0825.3,4.99,000.00,018.7,017.6,000.0,027.1,020.0,18.7,0000.0,0002.48,0008.48,0001.74
2023-12-03 22:38:00,SystemResetWarning,0825.3,5.00,000.00,018.7,017.6,000.0,027.1,020.0,18.7,0000.0,0002.49,0008.38,0001.74
2023-12-03 22:39:00,SystemResetWarning,0825.2,5.00,000.00,018.7,017.6,000.0,027.1,020.0,18.5,0000.0,0002.49,0008.09,0001.76
2023-12-03 22:40:00,SystemResetWarning,0825.2,5.00,000.00,018.7,017.6,000.0,027.1,020.0,18.5,0000.0,0002.50,0008.11,0001.78
2023-12-03 22:41:00,SystemResetWarning,0825.3,5.00,000.00,018.7,017.6,000.0,027.1,020.0,18.4,0000.0,0002.56,0008.06,0001.79
2023-12-03 22:42:00,SystemResetWarning,0825.4,5.00,000.00,018.7,017.6,000.0,027.1,020.0,18.3,0000.0,0002.64,0007.74,0001.82
2023-12-03 22:43:00,SystemResetWarning,0825.5,5.01,000.00,018.7,017.6,000.0,027.1,020.0,18.2,0000.0,0002.67,0007.96,0001.84
2023-12-03 22:44:00,SystemResetWarning,0825.5,5.01,000.00,018.7,017.6,000.0,027.1,020.0,18.3,0000.0,0002.74,0007.43,0001.85
2023-12-03 22:45:00,SystemResetWarning,0825.5,5.00,000.00,018.7,017.6,000.0,027.1,020.0,18.3,0000.0,0002.77,0007.21,0001.86
2023-12-03 22:46:00,SystemResetWarning,0825.4,5.00,000.00,018.7,017.6,000.0,027.1,020.0,18.3,0000.0,0002.77,0005.68,0001.87
2023-12-03 22:47:00,SystemResetWarning,0825.4,5.00,000.00,018.7,017.6,000.0,027.1,020.0,18.1,0000.0,0002.77,0005.55,0001.88
2023-12-03 22:48:00,SystemResetWarning,0825.4,4.99,000.00,018.7,017.6,000.0,027.1,020.0,18.1,0000.0,0002.72,0005.51,0001.87
2023-12-03 22:49:00,SystemResetWarning,0825.4,5.00,000.00,018.7,017.6,000.0,027.1,020.0,18.1,0000.0,0002.70,0005.66,0001.88
2023-12-03 22:50:00,SystemResetWarning,0825.3,4.99,000.00,018.7,017.6,000.0,027.1,020.0,18.2,0000.0,0002.72,0006.64,0001.90
2023-12-03 22:51:00,SystemResetWarning,0825.3,5.00,000.00,018.7,017.6,000.0,027.1,020.0,18.2,0000.0,0002.74,0006.73,0001.90
2023-12-03 22:52:00,SystemResetWarning,0825.4,5.00,000.00,018.7,017.6,000.0,027.1,020.0,18.3,0000.0,0002.72,0006.75,0001.92
2023-12-03 22:53:00,SystemResetWarning,0825.4,5.00,000.00,018.7,017.6,000.0,027.1,020.0,18.2,0000.0,0002.68,0006.40,0001.92
2023-12-03 22:54:00,SystemResetWarning,0825.5,5.00,000.00,018.7,017.6,000.0,027.1,020.0,18.1,0000.0,0002.75,0006.11,0001.93
2023-12-03 22:55:00,SystemResetWarning,0825.5,5.00,000.00,018.7,017.6,000.0,027.1,020.0,18.0,0000.0,0002.75,0005.99,0001.94
2023-12-03 22:56:00,SystemResetWarning,0825.4,4.99,000.00,018.7,017.6,000.0,027.1,020.0,18.0,0000.0,0002.75,0005.93,0001.94
2023-12-03 22:57:00,SystemResetWarning,0825.4,4.99,000.00,018.7,017.6,000.0,027.1,020.0,18.0,0000.0,0002.72,0005.92,0001.96
2023-12-03 22:58:00,SystemResetWarning,0825.5,5.00,000.00,018.7,017.6,000.0,027.1,020.0,18.1,0000.0,0002.72,0005.97,0001.97
2023-12-03 22:59:00,SystemResetWarning,0825.5,4.99,000.00,018.7,017.6,000.0,027.1,020.0,18.1,0000.0,0002.77,0005.99,0001.99
